Tracking 21612 objects as of 19-Oct-2020
HD Live streaming from Space Station
objects crossing your sky now

COSMOS 1275 DEB

Track COSMOS 1275 DEB now!
10-day predictions


NORAD ID: 39961
Int'l Code: 1981-053PD
Perigee: 897.0 km
Apogee: 980.4 km
Inclination: 82.8 °
Period: 103.7 minutes
Semi major axis: 7309 km
RCS: 0.0155 m2 (small)
Launch date: April 25, 1981
Source: Commonwealth of Independent States (former USSR) (CIS)
Launch site: PLESETSK MISSILE AND SPACE COMPLEX (PKMTR)

Note: This is SATELLITE DEBRIS
aabbcc
Your satellite tracking list
Your tracking list is empty




NASA's NSSDC Master Catalog

Two Line Element Set (TLE):
1 39961U 81053NX  20291.60067542 +.00000583 +00000-0 +46058-3 0  9991
2 39961 082.7767 028.1492 0057088 091.4938 332.3600 13.89162322322747
Source of the keplerian elements: AFSPC